Wind_Speed
45 45 45 45 45 46 46 47 48 48 48 48 49 50 51 52 52 52 52 53 52 52 52 52 51 52 52 53 54 53 51 50 50 49 49 48 48 47
43 43 43 44 44 45 45 46 47 47 47 46 47 47 49 50 50 50 49 49 49 50 50 50 50 50 51 51 51 51 51 50 49 48 48 48 47 46
40 41 41 42 42 42 44 44 45 46 45 44 44 45 46 46 46 46 46 45 46 47 48 49 48 48 47 48 49 49 49 49 48 47 48 47 46 45
39 40 40 41 41 40 41 42 43 44 44 42 42 42 42 42 43 43 43 44 45 46 46 47 47 47 47 47 47 47 47 46 47 47 46 45 44 43
39 39 39 40 40 39 40 40 41 41 42 41 40 40 39 40 40 41 42 42 43 45 45 45 46 46 47 46 45 45 45 44 43 42 41 41 41 41
38 38 38 38 39 38 39 39 39 39 39 39 38 38 38 39 38 40 41 41 42 42 43 43 43 44 45 44 43 43 42 41 39 37 37 37 38 37
36 37 38 38 39 38 38 38 38 38 37 37 36 36 36 37 38 38 39 39 39 40 40 41 41 42 42 41 40 38 37 37 36 35 35 35 35 35
35 36 37 37 37 37 37 37 37 36 35 35 35 34 35 36 37 37 38 37 37 38 38 38 38 38 38 37 35 34 35 35 34 34 33 32 33 33
35 35 36 36 36 36 37 36 36 35 34 34 34 34 34 35 35 35 35 35 36 36 36 35 35 34 33 31 30 30 31 32 31 30 30 30 31 32
35 35 36 36 36 36 36 35 34 34 33 33 33 33 33 33 33 32 32 32 32 33 33 33 32 30 28 27 26 27 28 28 28 28 28 28 29 30
34 35 35 35 36 36 35 34 33 32 32 31 31 30 30 31 31 31 30 29 29 29 29 28 27 26 25 24 24 24 25 26 27 27 27 27 27 28
34 34 34 35 34 33 33 33 32 32 30 29 29 29 28 28 28 28 28 28 28 27 26 25 24 23 22 23 23 24 24 25 25 26 26 25 25 26
32 33 33 33 33 32 31 30 30 30 29 29 28 28 27 27 26 26 26 25 24 23 23 23 23 23 22 21 22 23 23 23 24 24 24 23 24 24
30 30 31 31 29 28 28 28 28 28 28 28 28 27 27 25 24 23 22 21 21 21 21 22 21 21 20 20 20 20 21 22 22 22 22 22 22 23
27 27 27 27 26 26 26 26 26 25 25 25 25 25 24 23 22 21 20 19 19 19 19 20 19 18 18 18 19 19 19 19 20 20 20 20 20 21
24 24 24 23 23 23 23 23 23 23 23 23 22 22 22 21 21 20 19 18 18 17 18 18 19 18 18 17 17 17 17 17 17 17 16 16 17 17
22 22 21 21 20 20 20 21 21 20 20 20 20 20 19 19 19 19 18 17 17 16 16 17 17 18 18 17 16 16 16 14 14 14 15 15 15 15
21 20 19 19 19 19 19 19 18 17 17 17 17 16 15 15 15 15 16 16 15 15 16 16 16 16 15 14 14 13 13 12 12 13 13 14 13 13
20 19 19 19 19 19 18 17 17 16 15 15 14 13 13 12 13 13 13 13 13 13 13 13 13 13 12 11 11 11 11 11 11 11 12 12 11 11
18 18 18 17 17 16 15 14 14 14 13 13 12 11 11 11 11 10 10 10 10 10 10 10 10 10 10 9 9 9 9 10 10 11 11 11 11 11
16 16 15 15 14 14 13 12 12 12 12 11 10 9 9 9 9 8 8 8 8 8 8 8 8 8 8 8 8 7 8 8 9 10 11 11 11 11
13 13 13 12 12 11 11 10 9 9 9 9 8 8 8 7 7 7 7 6 6 6 7 7 7 7 7 7 6 7 7 7 8 9 10 11 11 10
11 10 10 9 9 9 9 9 8 7 7 7 7 7 6 6 6 6 6 6 6 6 6 6 6 6 6 6 6 6 6 6 7 7 8 9 9 10
Wind_Direction
265 266 266 267 268 270 271 271 272 271 270 271 272 272 273 273 273 273 271 269 267 267 269 271 272 272 272 273 273 271 271 270 269 267 266 265 265 264
264 265 267 269 269 270 272 273 274 273 272 272 273 273 273 272 272 272 271 268 268 268 269 271 272 273 273 273 272 271 270 269 268 266 264 264 264 263
266 267 269 271 271 272 273 274 274 275 274 274 275 275 274 272 271 271 270 269 269 269 269 271 272 272 272 272 273 272 271 270 268 266 265 264 262 261
267 268 270 272 274 275 275 276 276 277 276 276 275 275 274 273 272 271 271 271 270 270 270 271 271 272 273 272 272 271 270 270 268 267 264 262 260 259
267 268 270 272 274 275 277 278 278 278 277 276 275 274 273 274 272 271 271 272 271 271 270 270 271 272 273 272 271 271 270 269 268 266 263 261 259 257
266 268 270 272 273 275 277 279 279 279 278 277 276 274 273 274 273 271 272 272 273 272 271 271 272 272 273 272 270 270 269 268 265 265 263 261 258 255
267 268 270 271 273 275 277 278 280 279 278 277 276 275 275 275 275 273 273 273 273 273 271 271 272 273 273 272 271 268 266 264 263 263 261 258 256 254
268 269 270 271 274 277 277 278 279 278 276 275 276 276 276 276 276 275 275 273 273 273 271 271 271 272 272 271 269 266 262 260 261 261 260 256 255 254
269 270 271 272 274 276 278 277 278 276 274 273 274 276 277 277 277 277 275 274 275 274 272 272 271 271 270 268 265 263 260 259 258 259 258 256 254 254
269 271 271 272 274 275 277 277 276 274 274 273 274 275 276 278 278 277 276 275 274 274 273 272 271 269 266 265 263 261 259 258 256 257 256 255 254 253
270 271 272 273 275 275 276 275 273 272 273 273 274 275 277 278 278 276 275 276 275 274 272 270 268 266 264 263 262 261 259 258 257 257 257 256 255 252
270 271 271 273 274 275 274 272 270 271 272 273 274 275 276 279 278 277 277 278 277 272 271 269 266 264 263 264 263 261 260 259 258 258 257 256 254 251
271 271 272 273 274 274 271 269 270 271 270 272 274 276 277 278 278 278 278 277 275 271 269 268 267 264 263 262 261 260 259 257 256 256 254 254 254 252
269 271 272 272 273 272 270 269 270 269 270 271 273 275 276 276 276 275 274 272 270 268 266 266 266 265 262 261 260 260 258 254 253 254 255 256 255 252
270 271 271 271 270 269 269 269 269 270 271 272 273 273 273 272 272 271 271 270 268 267 265 265 264 262 261 260 261 260 258 256 256 255 254 254 252 250
271 271 272 273 271 269 269 269 270 271 271 271 271 271 270 270 270 268 269 270 269 266 262 261 260 259 258 259 259 261 262 259 258 255 252 252 251 249
274 272 272 272 270 270 271 270 269 269 270 271 270 270 270 269 267 267 268 267 267 265 262 258 258 256 255 256 256 256 258 255 253 252 252 250 251 251
272 271 271 270 269 269 271 271 268 268 271 273 271 269 268 267 266 268 268 267 265 264 262 261 260 257 253 250 252 252 251 248 246 247 248 248 249 252
270 272 272 270 268 268 269 267 263 263 266 270 268 264 264 266 267 268 268 267 263 261 262 260 258 253 247 244 243 243 243 243 244 249 251 250 250 250
270 271 271 268 265 264 264 261 257 258 261 265 263 260 262 263 263 264 265 263 258 256 256 253 250 249 240 239 240 243 244 247 247 248 249 250 252 252
271 270 267 265 262 259 255 253 254 256 258 259 258 258 257 255 255 254 255 256 251 250 248 242 241 242 233 230 237 244 251 254 253 251 250 252 253 251
270 267 264 262 258 252 247 247 251 253 254 250 248 248 244 242 244 243 242 241 242 243 238 230 226 228 225 226 235 245 253 259 260 259 258 257 253 248
266 261 257 253 246 242 241 243 245 243 241 237 238 238 235 237 239 237 231 227 225 221 218 214 211 210 215 224 234 245 255 257 257 255 254 252 249 248
Height
5620 5620 5620 5620 5619 5618 5618 5617 5617 5617 5618 5615 5613 5610 5608 5607 5606 5605 5604 5603 5603 5603 5604 5603 5603 5601 5600 5599 5598 5597 5596 5595 5595 5595 5596 5597 5598 5600
5608 5608 5609 5608 5608 5607 5606 5605 5603 5603 5603 5603 5600 5597 5595 5593 5591 5590 5589 5589 5589 5589 5589 5589 5588 5587 5586 5584 5583 5582 5581 5581 5581 5581 5582 5584 5585 5587
5598 5598 5598 5597 5596 5595 5594 5593 5591 5590 5590 5589 5586 5584 5581 5580 5578 5577 5576 5576 5576 5576 5576 5575 5574 5573 5572 5571 5570 5569 5568 5567 5567 5568 5569 5570 5572 5574
5587 5587 5587 5586 5586 5584 5583 5582 5580 5578 5577 5576 5574 5572 5570 5568 5567 5566 5565 5564 5563 5563 5562 5562 5561 5560 5559 5558 5557 5556 5555 5554 5554 5555 5557 5558 5560 5561
5577 5576 5576 5576 5575 5574 5572 5571 5569 5567 5565 5563 5562 5560 5559 5557 5556 5555 5554 5553 5551 5550 5550 5549 5548 5547 5546 5545 5544 5543 5543 5542 5543 5543 5544 5546 5547 5549
5566 5566 5566 5566 5565 5563 5562 5560 5558 5556 5554 5552 5551 5550 5548 5547 5545 5544 5543 5542 5540 5539 5538 5537 5536 5535 5534 5532 5532 5531 5531 5531 5531 5532 5534 5535 5537 5539
5556 5556 5556 5555 5554 5553 5552 5550 5548 5546 5544 5542 5541 5540 5538 5536 5535 5533 5532 5531 5529 5527 5527 5526 5525 5524 5522 5520 5519 5519 5520 5520 5521 5522 5524 5526 5528 5530
5546 5546 5546 5545 5544 5542 5541 5539 5537 5536 5534 5533 5532 5530 5528 5526 5524 5522 5521 5520 5519 5518 5516 5515 5513 5512 5511 5510 5509 5509 5509 5510 5512 5513 5515 5517 5519 5521
5537 5536 5535 5535 5534 5532 5530 5529 5527 5525 5524 5523 5522 5520 5518 5517 5514 5513 5511 5509 5508 5506 5505 5505 5503 5502 5501 5500 5500 5500 5501 5502 5503 5505 5506 5508 5510 5512
5527 5526 5525 5525 5524 5522 5521 5519 5517 5516 5515 5514 5513 5511 5509 5506 5505 5503 5501 5500 5499 5497 5495 5495 5494 5494 5493 5493 5492 5493 5494 5495 5496 5497 5499 5500 5502 5504
5517 5516 5515 5515 5514 5512 5511 5510 5509 5507 5506 5504 5503 5502 5500 5498 5496 5495 5493 5492 5491 5489 5487 5487 5487 5486 5486 5486 5486 5486 5487 5488 5489 5490 5491 5493 5494 5496
5506 5506 5505 5504 5503 5502 5501 5500 5500 5499 5497 5496 5495 5494 5492 5490 5488 5487 5485 5484 5483 5482 5481 5480 5480 5480 5480 5480 5480 5480 5481 5481 5482 5483 5484 5486 5487 5489
5496 5496 5495 5494 5493 5492 5491 5491 5491 5490 5489 5488 5487 5486 5484 5483 5481 5479 5478 5477 5476 5476 5475 5474 5474 5474 5474 5475 5475 5475 5475 5475 5476 5477 5478 5479 5481 5483
5486 5486 5485 5484 5484 5483 5483 5482 5482 5482 5481 5481 5480 5479 5478 5476 5475 5473 5472 5471 5471 5470 5469 5469 5469 5469 5469 5469 5469 5469 5469 5470 5471 5471 5472 5474 5475 5477
5477 5477 5476 5476 5475 5475 5475 5474 5474 5474 5473 5473 5472 5472 5471 5470 5469 5468 5467 5466 5466 5465 5465 5465 5465 5465 5465 5465 5465 5464 5464 5465 5465 5467 5468 5469 5470 5471
5469 5469 5468 5468 5467 5467 5467 5467 5467 5466 5466 5466 5466 5465 5465 5464 5463 5463 5462 5461 5461 5460 5460 5460 5460 5461 5461 5461 5460 5460 5460 5461 5461 5462 5463 5464 5465 5467
5462 5462 5461 5461 5461 5461 5460 5460 5460 5460 5460 5460 5459 5459 5459 5458 5458 5458 5457 5457 5456 5456 5456 5456 5456 5456 5457 5457 5457 5457 5457 5457 5458 5459 5460 5461 5462 5463
5456 5455 5455 5455 5455 5454 5454 5454 5454 5454 5454 5454 5454 5454 5454 5453 5453 5453 5453 5453 5452 5452 5452 5452 5452 5453 5454 5454 5454 5454 5454 5454 5455 5456 5457 5458 5459 5459
5449 5449 5449 5449 5448 5448 5447 5447 5448 5448 5449 5449 5449 5449 5449 5449 5449 5449 5449 5449 5449 5449 5449 5449 5449 5450 5451 5451 5451 5452 5452 5452 5453 5453 5454 5455 5456 5456
5443 5443 5443 5442 5442 5442 5442 5442 5443 5443 5444 5444 5445 5445 5445 5445 5446 5446 5446 5446 5446 5446 5446 5446 5447 5447 5448 5449 5450 5450 5450 5451 5451 5451 5452 5452 5453 5453
5438 5437 5437 5437 5436 5437 5437 5438 5439 5439 5440 5441 5441 5441 5442 5442 5443 5443 5443 5443 5443 5444 5444 5444 5445 5446 5447 5448 5449 5448 5448 5448 5449 5449 5450 5450 5451 5451
5432 5432 5432 5432 5432 5432 5433 5434 5435 5436 5436 5437 5438 5439 5439 5440 5440 5441 5441 5442 5442 5442 5443 5443 5444 5445 5446 5447 5447 5447 5447 5446 5446 5446 5447 5448 5448 5449
5428 5428 5428 5428 5428 5429 5430 5431 5432 5433 5434 5435 5436 5436 5437 5438 5438 5439 5439 5440 5440 5441 5442 5442 5443 5444 5445 5446 5446 5446 5446 5445 5445 5445 5445 5445 5446 5446